Year,Month,Day,Hour,Minute,Value (Times are PST for temperature in C)
2017,03,27,10,30,8.70
2017,03,27,10,31,8.60
2017,03,27,10,32,8.50
2017,03,27,10,33,8.50
2017,03,27,10,34,8.40
2017,03,27,10,35,8.40
2017,03,27,10,36,8.40
2017,03,27,10,37,8.50
2017,03,27,10,38,8.50
2017,03,27,10,39,8.50
2017,03,27,10,40,8.60
2017,03,27,10,41,8.70
2017,03,27,10,42,8.70
2017,03,27,10,43,8.70
2017,03,27,10,44,8.70
2017,03,27,10,45,8.70
2017,03,27,10,46,8.70
2017,03,27,10,47,8.70
2017,03,27,10,48,8.70
2017,03,27,10,49,8.70
2017,03,27,10,50,8.70
2017,03,27,10,51,8.70
2017,03,27,10,52,8.70
2017,03,27,10,53,8.80
2017,03,27,10,54,8.90
2017,03,27,10,55,9.00
2017,03,27,10,56,9.10
2017,03,27,10,57,9.30
2017,03,27,10,58,9.30
2017,03,27,10,59,9.20
2017,03,27,11,00,9.20
2017,03,27,11,01,9.10
2017,03,27,11,02,9.10
2017,03,27,11,03,9.10
2017,03,27,11,04,9.10
2017,03,27,11,05,9.00
2017,03,27,11,06,9.00
2017,03,27,11,07,9.10
2017,03,27,11,08,9.20
2017,03,27,11,09,9.20
2017,03,27,11,10,9.20
2017,03,27,11,11,9.20
2017,03,27,11,12,9.20
2017,03,27,11,13,9.20
2017,03,27,11,14,9.20
2017,03,27,11,15,9.20
2017,03,27,11,16,9.30
2017,03,27,11,17,9.30
2017,03,27,11,18,9.20
2017,03,27,11,19,9.30
2017,03,27,11,20,9.30
2017,03,27,11,21,9.40
2017,03,27,11,22,9.40
2017,03,27,11,23,9.40
2017,03,27,11,24,9.40
2017,03,27,11,25,9.40
2017,03,27,11,26,9.40
2017,03,27,11,27,9.30
2017,03,27,11,28,9.40
2017,03,27,11,29,9.30
2017,03,27,11,30,9.40
2017,03,27,11,31,9.40
2017,03,27,11,32,9.50
2017,03,27,11,33,9.50
2017,03,27,11,34,9.60
2017,03,27,11,35,9.70
2017,03,27,11,36,9.80
2017,03,27,11,37,9.90
2017,03,27,11,38,10.00
2017,03,27,11,39,10.10
2017,03,27,11,40,10.10
2017,03,27,11,41,10.20
2017,03,27,11,42,10.30
2017,03,27,11,43,10.40
2017,03,27,11,44,10.40
2017,03,27,11,45,10.40
2017,03,27,11,46,10.60
2017,03,27,11,47,10.50
2017,03,27,11,48,10.60
2017,03,27,11,49,10.50
2017,03,27,11,50,10.40
2017,03,27,11,51,10.40
2017,03,27,11,52,10.30
2017,03,27,11,53,10.30
2017,03,27,11,54,10.30
2017,03,27,11,55,10.30
2017,03,27,11,56,10.40
2017,03,27,11,57,10.50
2017,03,27,11,58,10.40
2017,03,27,11,59,10.50
2017,03,27,12,00,10.60
2017,03,27,12,01,10.70
2017,03,27,12,02,10.80
2017,03,27,12,03,10.80
2017,03,27,12,04,10.90
2017,03,27,12,05,10.90
2017,03,27,12,06,10.90
2017,03,27,12,07,10.90
2017,03,27,12,08,10.90
2017,03,27,12,09,10.90
2017,03,27,12,10,10.90
2017,03,27,12,11,11.00
2017,03,27,12,12,11.10
2017,03,27,12,13,11.10
2017,03,27,12,14,11.10
2017,03,27,12,15,11.10
2017,03,27,12,16,11.10
2017,03,27,12,17,11.10
2017,03,27,12,18,11.10
2017,03,27,12,19,11.00
2017,03,27,12,20,10.90
2017,03,27,12,21,10.90
2017,03,27,12,22,10.90
2017,03,27,12,23,10.90
2017,03,27,12,24,10.90
2017,03,27,12,25,10.80
2017,03,27,12,26,10.70
2017,03,27,12,27,10.60
2017,03,27,12,28,10.60
2017,03,27,12,29,10.60
2017,03,27,12,30,10.60
2017,03,27,12,31,10.60
2017,03,27,12,32,10.50
2017,03,27,12,33,10.60
2017,03,27,12,34,10.60
2017,03,27,12,35,10.60
2017,03,27,12,36,10.60
2017,03,27,12,37,10.70
2017,03,27,12,38,10.80
2017,03,27,12,39,10.80
2017,03,27,12,40,10.70
2017,03,27,12,41,10.80
2017,03,27,12,42,10.80
2017,03,27,12,43,10.80
2017,03,27,12,44,10.80
2017,03,27,12,45,10.80
2017,03,27,12,46,10.80
2017,03,27,12,47,10.80
2017,03,27,12,48,10.80
2017,03,27,12,49,10.80
2017,03,27,12,50,10.70
2017,03,27,12,51,10.80
2017,03,27,12,52,10.90
2017,03,27,12,53,10.90
2017,03,27,12,54,11.00
2017,03,27,12,55,11.10
2017,03,27,12,56,11.20
2017,03,27,12,57,11.30
2017,03,27,12,58,11.40
2017,03,27,12,59,11.60
2017,03,27,13,00,11.60
2017,03,27,13,01,11.50
2017,03,27,13,02,11.30
2017,03,27,13,03,11.20
2017,03,27,13,04,11.10
2017,03,27,13,05,11.00
2017,03,27,13,06,10.90
2017,03,27,13,07,10.90
2017,03,27,13,08,10.90
2017,03,27,13,09,10.90
2017,03,27,13,10,10.90
2017,03,27,13,11,10.90
2017,03,27,13,12,10.90
2017,03,27,13,13,10.90
2017,03,27,13,14,11.00
2017,03,27,13,15,11.10
2017,03,27,13,16,10.90
2017,03,27,13,17,10.90
2017,03,27,13,18,10.90
2017,03,27,13,19,10.90
2017,03,27,13,20,10.90
2017,03,27,13,21,10.90
2017,03,27,13,22,10.80
2017,03,27,13,23,10.70
2017,03,27,13,24,10.70
2017,03,27,13,25,10.70
2017,03,27,13,26,10.70
2017,03,27,13,27,10.60
2017,03,27,13,28,10.70
2017,03,27,13,29,10.60
2017,03,27,13,30,10.60
2017,03,27,13,31,10.70
2017,03,27,13,32,10.70
2017,03,27,13,33,10.70
2017,03,27,13,34,10.80
2017,03,27,13,35,10.80
2017,03,27,13,36,10.80
2017,03,27,13,37,10.80
2017,03,27,13,38,10.80
2017,03,27,13,39,10.80
2017,03,27,13,40,10.80
2017,03,27,13,41,10.80
2017,03,27,13,42,10.80
2017,03,27,13,43,10.70
2017,03,27,13,44,10.70
2017,03,27,13,45,10.60
2017,03,27,13,46,10.60
2017,03,27,13,47,10.60
2017,03,27,13,48,10.60
2017,03,27,13,49,10.60
2017,03,27,13,50,10.60
2017,03,27,13,51,10.60
2017,03,27,13,52,10.50
2017,03,27,13,53,10.50
2017,03,27,13,54,10.50
2017,03,27,13,55,10.60
2017,03,27,13,56,10.60
2017,03,27,13,57,10.60
2017,03,27,13,58,10.70
2017,03,27,13,59,10.70
2017,03,27,14,00,10.70
2017,03,27,14,01,10.60
2017,03,27,14,02,10.60
2017,03,27,14,03,10.60
2017,03,27,14,04,10.50
2017,03,27,14,05,10.40
2017,03,27,14,06,10.40
2017,03,27,14,07,10.50
2017,03,27,14,08,10.60
2017,03,27,14,09,10.60
2017,03,27,14,10,10.60
2017,03,27,14,11,10.60
2017,03,27,14,12,10.60
2017,03,27,14,13,10.60
2017,03,27,14,14,10.60
2017,03,27,14,15,10.60
2017,03,27,14,16,10.60
2017,03,27,14,17,10.60
2017,03,27,14,18,10.60
2017,03,27,14,19,10.60
2017,03,27,14,20,10.60
2017,03,27,14,21,10.60
2017,03,27,14,22,10.60
2017,03,27,14,23,10.70
2017,03,27,14,24,10.70
2017,03,27,14,25,10.60
2017,03,27,14,26,10.60
2017,03,27,14,27,10.60
2017,03,27,14,28,10.70
2017,03,27,14,29,10.60
2017,03,27,14,30,10.60
2017,03,27,14,31,10.60
2017,03,27,14,32,10.50
2017,03,27,14,33,10.40
2017,03,27,14,34,10.40
2017,03,27,14,35,10.30
2017,03,27,14,36,10.20
2017,03,27,14,37,10.20
2017,03,27,14,38,10.10
2017,03,27,14,39,10.10
2017,03,27,14,40,10.10
2017,03,27,14,41,10.10
2017,03,27,14,42,10.10
2017,03,27,14,43,10.20
2017,03,27,14,44,10.20
2017,03,27,14,45,10.20
2017,03,27,14,46,10.20
2017,03,27,14,47,10.20
2017,03,27,14,48,10.30
2017,03,27,14,49,10.30
2017,03,27,14,50,10.30
2017,03,27,14,51,10.30
2017,03,27,14,52,10.20
2017,03,27,14,53,10.20
2017,03,27,14,54,10.20
2017,03,27,14,55,10.20
2017,03,27,14,56,10.20
2017,03,27,14,57,10.20
2017,03,27,14,58,10.20
2017,03,27,14,59,10.20
2017,03,27,15,00,10.20
2017,03,27,15,01,10.20
2017,03,27,15,02,10.20
2017,03,27,15,03,10.20
2017,03,27,15,04,10.20
2017,03,27,15,05,10.20
2017,03,27,15,06,10.20
2017,03,27,15,07,10.10
2017,03,27,15,08,10.10
2017,03,27,15,09,10.10
2017,03,27,15,10,10.10
2017,03,27,15,11,10.10
2017,03,27,15,12,10.20
2017,03,27,15,13,10.20
2017,03,27,15,14,10.30
2017,03,27,15,15,10.30
2017,03,27,15,16,10.30
2017,03,27,15,17,10.30
2017,03,27,15,18,10.30
2017,03,27,15,19,10.30
2017,03,27,15,20,10.30
2017,03,27,15,21,10.20
2017,03,27,15,22,10.20
2017,03,27,15,23,10.20
2017,03,27,15,24,10.30
2017,03,27,15,25,10.20
2017,03,27,15,26,10.20
2017,03,27,15,27,10.20
2017,03,27,15,28,10.20
2017,03,27,15,29,10.20
2017,03,27,15,30,10.20
2017,03,27,15,31,10.20
2017,03,27,15,32,10.20
2017,03,27,15,33,10.20
2017,03,27,15,34,10.20
2017,03,27,15,35,10.30
2017,03,27,15,36,10.30
2017,03,27,15,37,10.30
2017,03,27,15,38,10.40
2017,03,27,15,39,10.40
2017,03,27,15,40,10.40
2017,03,27,15,41,10.30
2017,03,27,15,42,10.30
2017,03,27,15,43,10.30
2017,03,27,15,44,10.20
2017,03,27,15,45,10.20
2017,03,27,15,46,10.20
2017,03,27,15,47,10.20
2017,03,27,15,48,10.20
2017,03,27,15,49,10.20
2017,03,27,15,50,10.10
2017,03,27,15,51,10.10
2017,03,27,15,52,10.10
2017,03,27,15,53,10.10
2017,03,27,15,54,10.10
2017,03,27,15,55,10.20
2017,03,27,15,56,10.20
2017,03,27,15,57,10.20
2017,03,27,15,58,10.30
2017,03,27,15,59,10.30
2017,03,27,16,00,10.30
2017,03,27,16,01,10.30
2017,03,27,16,02,10.20
2017,03,27,16,03,10.20
2017,03,27,16,04,10.20
2017,03,27,16,05,10.20
2017,03,27,16,06,10.20
2017,03,27,16,07,10.20
2017,03,27,16,08,10.20
2017,03,27,16,09,10.20
2017,03,27,16,10,10.20
2017,03,27,16,11,10.20
2017,03,27,16,12,10.30
2017,03,27,16,13,10.30
2017,03,27,16,14,10.30
2017,03,27,16,15,10.30
2017,03,27,16,16,10.30
2017,03,27,16,17,10.30
2017,03,27,16,18,10.30
2017,03,27,16,19,10.30
2017,03,27,16,20,10.30
2017,03,27,16,21,10.30
2017,03,27,16,22,10.30
2017,03,27,16,23,10.30
2017,03,27,16,24,10.30
2017,03,27,16,25,10.30
2017,03,27,16,26,10.30
2017,03,27,16,27,10.20
2017,03,27,16,28,10.20
2017,03,27,16,29,10.20
2017,03,27,16,30,10.20
2017,03,27,16,31,10.10
2017,03,27,16,32,10.10
2017,03,27,16,33,10.20
2017,03,27,16,34,10.20
2017,03,27,16,35,10.10
2017,03,27,16,36,10.10
2017,03,27,16,37,10.10
2017,03,27,16,38,10.10
2017,03,27,16,39,10.10
2017,03,27,16,40,10.10
2017,03,27,16,41,10.10
2017,03,27,16,42,10.10
2017,03,27,16,43,10.00
2017,03,27,16,44,9.90
2017,03,27,16,45,9.90
2017,03,27,16,46,9.90
2017,03,27,16,47,9.90
2017,03,27,16,48,10.00
2017,03,27,16,49,10.10
2017,03,27,16,50,10.10
2017,03,27,16,51,10.10
2017,03,27,16,52,10.10
2017,03,27,16,53,10.20
2017,03,27,16,54,10.20
2017,03,27,16,55,10.10
2017,03,27,16,56,10.10
2017,03,27,16,57,10.20
2017,03,27,16,58,10.20
2017,03,27,16,59,10.20
2017,03,27,17,00,10.20
2017,03,27,17,01,10.20
2017,03,27,17,02,10.20
2017,03,27,17,03,10.20
2017,03,27,17,04,10.20
2017,03,27,17,05,10.20
2017,03,27,17,06,10.20
2017,03,27,17,07,10.20
2017,03,27,17,08,10.20
2017,03,27,17,09,10.20
2017,03,27,17,10,10.20
2017,03,27,17,11,10.20
2017,03,27,17,12,10.20
2017,03,27,17,13,10.20
2017,03,27,17,14,10.20
2017,03,27,17,15,10.20
2017,03,27,17,16,10.20
2017,03,27,17,17,10.20
2017,03,27,17,18,10.30
2017,03,27,17,19,10.30
2017,03,27,17,20,10.30
2017,03,27,17,21,10.30
2017,03,27,17,22,10.30
2017,03,27,17,23,10.30
2017,03,27,17,24,10.30
2017,03,27,17,25,10.30
2017,03,27,17,26,10.20
2017,03,27,17,27,10.20
2017,03,27,17,28,10.20
2017,03,27,17,29,10.20
2017,03,27,17,30,10.30
2017,03,27,17,31,10.30
2017,03,27,17,32,10.30
2017,03,27,17,33,10.40
2017,03,27,17,34,10.50
2017,03,27,17,35,10.60
2017,03,27,17,36,10.70
2017,03,27,17,37,10.70
2017,03,27,17,38,10.60
2017,03,27,17,39,10.60
2017,03,27,17,40,10.60
2017,03,27,17,41,10.60
2017,03,27,17,42,10.60
2017,03,27,17,43,10.40
2017,03,27,17,44,10.40
2017,03,27,17,45,10.30
2017,03,27,17,46,10.20
2017,03,27,17,47,10.20
2017,03,27,17,48,10.10
2017,03,27,17,49,10.10
2017,03,27,17,50,10.10
2017,03,27,17,51,10.00
2017,03,27,17,52,9.90
2017,03,27,17,53,9.90
2017,03,27,17,54,9.90
2017,03,27,17,55,9.90
2017,03,27,17,56,9.90
2017,03,27,17,57,9.90
2017,03,27,17,58,9.90
2017,03,27,17,59,9.90
2017,03,27,18,00,9.90
2017,03,27,18,01,9.90
2017,03,27,18,02,9.90
2017,03,27,18,03,9.90
2017,03,27,18,04,9.90
2017,03,27,18,05,9.90
2017,03,27,18,06,9.90
2017,03,27,18,07,9.90
2017,03,27,18,08,9.90
2017,03,27,18,09,9.90
2017,03,27,18,10,9.90
2017,03,27,18,11,9.90
2017,03,27,18,12,9.90
2017,03,27,18,13,9.90
2017,03,27,18,14,9.90
